Regional Weather Roundup
Issued by NWS

Home | Current Version | Previous Version | Text Only | Print | Product List | Glossary Off
Versions: 1 2 3 4 5 6 7 8 9 10 11 12 13 14 15 16 17 18 19 20 21 22 23 24 25 26 27 28 29 30 31 32 33 34 35 36 37 38 39 40 41 42 43 44 45 46 47 48 49 50

000
ASUS43 KFSD 280810
RWRSD

WEATHER ROUNDUP FOR SOUTH DAKOTA
NATIONAL WEATHER SERVICE SIOUX FALLS SD
300 AM CDT TUE APR 28 2015

NOTE: "FAIR" INDICATES FEW OR NO CLOUDS BELOW 12,000 FEET WITH NO
SIGNIFICANT WEATHER AND/OR OBSTRUCTIONS TO VISIBILITY.


SDZ001>005-009-010-012>017-280900-
NORTHWEST AND NORTH CENTRAL SOUTH DAKOTA

CITY           SKY/WX    TMP DP  RH WIND       PRES   REMARKS
BUFFALO          N/A     36  33  89 W6        30.27S
FAITH            N/A     44  37  76 NW5       30.32F
MOBRIDGE       PTCLDY    39  37  92 N3        30.29S
$$

SDZ012>016-024>037-041>051-057-063-072>074-280900-
SOUTHWEST AND SOUTH CENTRAL SOUTH DAKOTA

CITY           SKY/WX    TMP DP  RH WIND       PRES   REMARKS
RAPID CTY ARPT CLEAR     34  32  92 CALM      30.34S
PIERRE         CLOUDY    46  42  86 NW7       30.31S
CUSTER         FOG       39  38  96 SW3       30.32F VSB 1/4
ELLSWORTH AFB  CLEAR     35  33  90 W3        30.33F
PHILIP         CLOUDY    44  40  85 NW7       30.33S
PINE RIDGE     CLOUDY    43  40  89 CALM      30.35S
SPEARFISH      FAIR      34  32  93 CALM      30.34F
WINNER         FAIR      43  38  82 NW9       30.31S
$$

SDZ004>011-016>023-039-040-280900-
NORTHEAST SOUTH DAKOTA

CITY           SKY/WX    TMP DP  RH WIND       PRES   REMARKS
ABERDEEN       LGT RAIN  48  44  86 N10       30.28R
WATERTOWN      MOCLDY    45  40  82 NW9       30.22S
BROOKINGS      CLEAR     45  36  70 CALM      30.22S
SISSETON         N/A     49  44  83 N13       30.23S
$$

SDZ017-020-022-023-036>040-048>070-280900-
SOUTHEAST SOUTH DAKOTA

CITY           SKY/WX    TMP DP  RH WIND       PRES   REMARKS
SIOUX FALLS    CLEAR     41  30  65 CALM      30.20S
HURON          PTCLDY    48  42  80 N10       30.25S
CHAMBERLAIN    PTCLDY    45  41  87 NW10      30.29S
MITCHELL       CLEAR     45  41  86 NW10      30.24S
YANKTON        CLEAR     46  39  76 SW8       30.22S
$$

ABBREVIATIONS USED IN REMARKS
   TC - TEMPERATURE IN CELSIUS
  WCI - WIND CHILL INDEX
   HX - HEAT INDEX
  VSB - VISIBILITY




USA.gov is the U.S. government's official web portal to all federal, state and local government web resources and services.